Location: Lower Kingswood
(51.2667°N, 0.2167°W)
Time: 12:03:10
(UTC+00:00)

Cosmos 990 Rocket - Pass Details

Date: 26 September 2023
Orbit: 746 x 766 km, 74.0° (Epoch: 10 December)

Event Time Altitude Azimuth Distance (km) Brightness Sun altitude
Exits shadow 03:02:38 72° 306° (NW) 809 3.9 -25.9°
Drops below altitude 10° 03:07:48 10° 22° (NNE) 2,317 7.2 -25.3°
Sets 03:10:12 0° 24° (NNE) 3,247 8.1 -25.0°
